This is the latest recevied weather packets stored in our database for station/object KA7GOO. If no packets are shown the sender has not sent any weather packets the latest 10 day(s).
| Time | Temp. | Humidity | Pressure | Rain* | Wind** | Luminosity | Snow |
|---|---|---|---|---|---|---|---|
| 1777426264 | 24.44° C | 31% | 1007.9 hPa | 0 mm | - | - | - |
| 1777425374 | 24.44° C | 31% | 1007.9 hPa | 0 mm | - | - | - |
| 1777424494 | 25° C | 31% | 1008 hPa | 0 mm | - | - | - |
| 1777423589 | 25° C | 31% | 1008.2 hPa | 0 mm | - | - | - |
| 1777422702 | 25° C | 31% | 1008.2 hPa | 0 mm | - | - | - |
| 1777421806 | 25° C | 31% | 1008.2 hPa | 0 mm | - | - | - |
| 1777420883 | 25° C | 31% | 1008.3 hPa | 0 mm | - | - | - |
| 1777419931 | 25° C | 31% | 1008.7 hPa | 0 mm | - | - | - |
| 1777419113 | 25° C | 31% | 1008.7 hPa | 0 mm | - | - | - |
| 1777418197 | 25° C | 31% | 1008.8 hPa | 0 mm | - | - | - |
| 1777417203 | 25° C | 31% | 1009.3 hPa | 0 mm | - | - | - |
| 1777416371 | 25° C | 31% | 1009.3 hPa | 0 mm | - | - | - |
| 1777415500 | 25° C | 31% | 1009.4 hPa | 0 mm | - | - | - |
| 1777414571 | 24.44° C | 31% | 1009.9 hPa | 0 mm | - | - | - |
| 1777413702 | 23.89° C | 31% | 1010.2 hPa | 0 mm | - | - | - |
| 1777412802 | 23.89° C | 31% | 1010.6 hPa | 0 mm | - | - | - |
| 1777411801 | 23.33° C | 31% | 1011.2 hPa | 0 mm | - | - | - |
| 1777410910 | 23.33° C | 31% | 1011.3 hPa | 0 mm | - | - | - |
| 1777410078 | 23.89° C | 31% | 1011.3 hPa | 0 mm | - | - | - |
| 1777409201 | 23.33° C | 31% | 1011.5 hPa | 0 mm | - | - | - |
| 1777408275 | 22.78° C | 31% | 1011.8 hPa | 0 mm | - | - | - |
| 1777407382 | 22.78° C | 31% | 1011.9 hPa | 0 mm | - | - | - |
| 1777406503 | 22.78° C | 32% | 1012 hPa | 0 mm | - | - | - |
| 1777405510 | 22.22° C | 32% | 1012.4 hPa | 0 mm | - | - | - |
| 1777404671 | 21.67° C | 32% | 1012.4 hPa | 0 mm | - | - | - |
* Rain latest hour (hover to see other rain measurements)
** Current wind speed in m/s (hover to see current wind gust speed)